When you browse on this site, cookies collect data to enhance your experience and personalize the content and advertising you see.
Visit our Privacy Policy to learn more. By continuing to use the site, you agree to this use of cookies and data.
  • En España
  • Lista de países
  • Para 7 días
  • Temperatura del agua
  • Mapa Satelital
  • El tiempo en el mapa
  • Informadores
  • user-avatar
    Iniciar sesión

    Tiempo cada hora Pogarino

    Hoy, 17 Febrero, Domingo

    Tiempo Temperatura Precipitaciones Viento Presión Humedad
    00:00 -2°C° 0 mm 6 mps 734 mmHg 83%
    01:00 -2°C° 0 mm 6 mps 734 mmHg 84%
    02:00 -2°C° 0 mm 6 mps 733 mmHg 86%
    03:00 -2°C° 0 mm 6 mps 733 mmHg 87%
    04:00 -2°C° 0 mm 6 mps 733 mmHg 88%
    05:00 -2°C° 0 mm 6 mps 732 mmHg 89%
    06:00 -3°C° 0 mm 6 mps 733 mmHg 88%
    07:00 -3°C° 0 mm 6 mps 733 mmHg 87%
    08:00 -4°C° 0 mm 6 mps 733 mmHg 86%
    09:00 -4°C° 0 mm 6 mps 733 mmHg 84%
    10:00 -4°C° 0 mm 7 mps 733 mmHg 82%
    11:00 -3°C° 0 mm 7 mps 733 mmHg 80%
    12:00 -3°C° 0.1 mm 7 mps 733 mmHg 79%
    13:00 -4°C° 0.1 mm 8 mps 734 mmHg 78%
    14:00 -4°C° 0.1 mm 8 mps 734 mmHg 77%
    15:00 -5°C° 0.1 mm 8 mps 734 mmHg 77%
    16:00 -4°C° 0.1 mm 7 mps 735 mmHg 77%
    17:00 -4°C° 0.1 mm 7 mps 736 mmHg 77%
    18:00 -6°C° 0 mm 7 mps 736 mmHg 78%
    19:00 -6°C° 0 mm 7 mps 737 mmHg 79%
    20:00 -6°C° 0 mm 7 mps 738 mmHg 80%
    21:00 -5°C° 0 mm 6 mps 739 mmHg 80%
    22:00 -6°C° 0 mm 6 mps 739 mmHg 81%
    23:00 -6°C° 0 mm 6 mps 740 mmHg 82%

    Mañana, 18 Febrero, Lunes

    Tiempo Temperatura Precipitaciones Viento Presión Humedad
    00:00 -7°C° 0 mm 5 mps 741 mmHg 84%
    01:00 -7°C° 0 mm 5 mps 742 mmHg 85%
    02:00 -8°C° 0 mm 4 mps 743 mmHg 87%
    03:00 -9°C° 0 mm 4 mps 744 mmHg 88%
    04:00 -9°C° 0 mm 4 mps 744 mmHg 89%
    05:00 -10°C° 0 mm 4 mps 745 mmHg 90%
    06:00 -10°C° 0 mm 3 mps 746 mmHg 91%
    07:00 -10°C° 0 mm 3 mps 746 mmHg 91%
    08:00 -12°C° 0 mm 3 mps 747 mmHg 92%
    09:00 -10°C° 0 mm 3 mps 747 mmHg 89%
    10:00 -9°C° 0 mm 3 mps 748 mmHg 87%
    11:00 -7°C° 0 mm 2 mps 748 mmHg 84%
    12:00 -6°C° 0 mm 2 mps 748 mmHg 82%
    13:00 -6°C° 0 mm 2 mps 749 mmHg 81%
    14:00 -5°C° 0 mm 2 mps 749 mmHg 80%
    15:00 -4°C° 0 mm 1 mps 749 mmHg 83%
    16:00 -7°C° 0 mm 1 mps 749 mmHg 86%
    17:00 -8°C° 0 mm 1 mps 749 mmHg 89%
    18:00 -8°C° 0 mm 1 mps 749 mmHg 89%
    19:00 -8°C° 0 mm 1 mps 748 mmHg 89%
    20:00 -9°C° 0 mm 2 mps 748 mmHg 89%
    21:00 -8°C° 0 mm 2 mps 748 mmHg 87%
    22:00 -8°C° 0 mm 3 mps 748 mmHg 85%
    23:00 -8°C° 0 mm 3 mps 747 mmHg 83%

    Pasado mañana, 19 Febrero, Martes

    Tiempo Temperatura Precipitaciones Viento Presión Humedad
    00:00 -8°C° 0 mm 4 mps 747 mmHg 81%
    01:00 -8°C° 0 mm 4 mps 746 mmHg 79%
    02:00 -7°C° 0 mm 5 mps 745 mmHg 77%
    03:00 -7°C° 0 mm 5 mps 745 mmHg 76%
    04:00 -6°C° 0 mm 5 mps 744 mmHg 74%
    05:00 -6°C° 0 mm 5 mps 743 mmHg 73%
    06:00 -6°C° 0 mm 5 mps 743 mmHg 76%
    07:00 -6°C° 0 mm 5 mps 743 mmHg 79%
    08:00 -5°C° 0 mm 5 mps 742 mmHg 83%
    09:00 -4°C° 0 mm 5 mps 742 mmHg 84%
    10:00 -2°C° 0 mm 5 mps 742 mmHg 85%
    11:00 -2°C° 0 mm 5 mps 741 mmHg 86%
    12:00 -1°C° 0 mm 5 mps 741 mmHg 87%
    13:00 -1°C° 0 mm 4 mps 740 mmHg 87%
    14:00 -1°C° 0 mm 4 mps 740 mmHg 87%
    15:00 -1°C° 0 mm 4 mps 739 mmHg 87%
    16:00 -1°C° 0 mm 4 mps 739 mmHg 86%
    17:00 -2°C° 0 mm 4 mps 738 mmHg 85%
    18:00 -2°C° 0 mm 4 mps 738 mmHg 85%
    19:00 -2°C° 0 mm 5 mps 737 mmHg 85%
    20:00 -2°C° 0 mm 5 mps 737 mmHg 85%
    21:00 -2°C° 0 mm 5 mps 736 mmHg 86%
    22:00 -2°C° 0 mm 5 mps 736 mmHg 87%
    23:00 -2°C° 0 mm 5 mps 735 mmHg 88%

    20 Febrero, Miércoles

    Tiempo Temperatura Precipitaciones Viento Presión Humedad
    00:00 -2°C° 0 mm 5 mps 735 mmHg 89%
    01:00 -1°C° 0 mm 5 mps 734 mmHg 89%
    02:00 -1°C° 0 mm 5 mps 734 mmHg 89%
    03:00 -1°C° 0.2 mm 5 mps 733 mmHg 90%
    04:00 -1°C° 0.2 mm 4 mps 733 mmHg 91%
    05:00 -1°C° 0.2 mm 4 mps 732 mmHg 92%
    06:00 -1°C° 0.5 mm 4 mps 732 mmHg 92%
    07:00 -1°C° 0.5 mm 4 mps 732 mmHg 93%
    08:00 -1°C° 0.5 mm 4 mps 731 mmHg 93%
    09:00 -1°C° 0.3 mm 4 mps 731 mmHg 94%
    10:00 -1°C° 0.3 mm 4 mps 731 mmHg 95%
    11:00 0°C° 0.3 mm 3 mps 731 mmHg 96%
    12:00 -1°C° 0 mm 4 mps 731 mmHg 96%
    13:00 -1°C° 0 mm 4 mps 731 mmHg 96%
    14:00 -1°C° 0 mm 4 mps 731 mmHg 95%
    15:00 -1°C° 0.1 mm 4 mps 731 mmHg 95%
    16:00 0°C° 0.1 mm 3 mps 731 mmHg 94%
    17:00 0°C° 0.1 mm 3 mps 730 mmHg 94%
    18:00 0°C° 0.1 mm 3 mps 730 mmHg 94%
    19:00 0°C° 0.1 mm 3 mps 730 mmHg 94%
    20:00 0°C° 0.1 mm 3 mps 730 mmHg 94%
    21:00 0°C° 0.1 mm 3 mps 730 mmHg 94%
    22:00 0°C° 0.1 mm 3 mps 730 mmHg 93%
    23:00 -1°C° 0.1 mm 4 mps 730 mmHg 93%

    21 Febrero, Jueves

    Tiempo Temperatura Precipitaciones Viento Presión Humedad
    00:00 -3°C° 0.3 mm 4 mps 731 mmHg 92%
    01:00 -5°C° 0.3 mm 5 mps 731 mmHg 91%
    02:00 -6°C° 0.3 mm 6 mps 732 mmHg 90%
    03:00 -8°C° 0.2 mm 6 mps 732 mmHg 87%
    04:00 -10°C° 0.2 mm 6 mps 733 mmHg 84%
    05:00 -12°C° 0.2 mm 6 mps 734 mmHg 81%
    06:00 -12°C° 0.1 mm 6 mps 734 mmHg 82%
    07:00 -11°C° 0.1 mm 6 mps 735 mmHg 83%
    08:00 -11°C° 0.1 mm 6 mps 736 mmHg 84%
    09:00 -11°C° 0.2 mm 6 mps 736 mmHg 83%
    10:00 -11°C° 0.2 mm 6 mps 737 mmHg 82%
    11:00 -11°C° 0.2 mm 6 mps 738 mmHg 81%
    12:00 -10°C° 0.1 mm 6 mps 738 mmHg 81%
    13:00 -10°C° 0.1 mm 6 mps 739 mmHg 80%
    14:00 -10°C° 0.1 mm 6 mps 740 mmHg 79%
    15:00 -10°C° 0.1 mm 6 mps 741 mmHg 80%
    16:00 -11°C° 0.1 mm 6 mps 742 mmHg 81%
    17:00 -11°C° 0.1 mm 5 mps 743 mmHg 82%
    18:00 -12°C° 0.1 mm 5 mps 743 mmHg 83%
    19:00 -13°C° 0.1 mm 5 mps 744 mmHg 83%
    20:00 -13°C° 0.1 mm 5 mps 745 mmHg 83%
    21:00 -14°C° 0 mm 5 mps 745 mmHg 84%
    22:00 -14°C° 0 mm 4 mps 746 mmHg 85%
    23:00 -14°C° 0 mm 4 mps 746 mmHg 85%

    22 Febrero, Viernes

    Tiempo Temperatura Precipitaciones Viento Presión Humedad
    00:00 -15°C° 0 mm 4 mps 747 mmHg 86%
    01:00 -15°C° 0 mm 4 mps 747 mmHg 86%
    02:00 -16°C° 0 mm 4 mps 748 mmHg 87%
    03:00 -16°C° 0 mm 4 mps 749 mmHg 87%
    04:00 -17°C° 0 mm 4 mps 749 mmHg 86%
    05:00 -17°C° 0 mm 4 mps 750 mmHg 86%
    06:00 -17°C° 0 mm 4 mps 751 mmHg 84%
    07:00 -17°C° 0 mm 4 mps 752 mmHg 82%
    08:00 -17°C° 0 mm 4 mps 752 mmHg 80%
    09:00 -15°C° 0 mm 4 mps 753 mmHg 80%
    10:00 -14°C° 0 mm 4 mps 754 mmHg 79%
    11:00 -12°C° 0 mm 5 mps 755 mmHg 78%
    12:00 -10°C° 0 mm 4 mps 755 mmHg 77%
    13:00 -10°C° 0 mm 4 mps 756 mmHg 76%
    14:00 -9°C° 0 mm 4 mps 756 mmHg 74%
    15:00 -10°C° 0 mm 4 mps 757 mmHg 78%
    16:00 -10°C° 0 mm 3 mps 757 mmHg 82%
    17:00 -12°C° 0 mm 3 mps 758 mmHg 85%
    18:00 -13°C° 0 mm 3 mps 758 mmHg 86%
    19:00 -14°C° 0 mm 3 mps 758 mmHg 88%
    20:00 -14°C° 0 mm 3 mps 759 mmHg 89%
    21:00 -15°C° 0 mm 3 mps 759 mmHg 90%
    22:00 -15°C° 0 mm 3 mps 760 mmHg 90%
    23:00 -15°C° 0 mm 2 mps 760 mmHg 91%
    Mostrar más